When you browse on this site, cookies collect data to enhance your experience and personalize the content and advertising you see.
Visit our Privacy Policy to learn more. By continuing to use the site, you agree to this use of cookies and data.
  • In Austria
  • List of Countries
  • For 7 days
  • Water Temperature
  • Satellite Maps
  • Weather Map
  • News
  • Weather Widgets
  • user-avatar
    Login

    Hourly Weather Vetchinskaya Rudnya

    Today, 22 May, Wednesday

    Time Temperature Precipitation Wind Pressure Humidity
    00:00 +15°C° 0 mm 2 mps 743 mmHg 97%
    01:00 +14°C° 0 mm 2 mps 743 mmHg 97%
    02:00 +14°C° 0 mm 2 mps 743 mmHg 97%
    03:00 +13°C° 0 mm 2 mps 743 mmHg 97%
    04:00 +13°C° 0 mm 2 mps 743 mmHg 98%
    05:00 +13°C° 0 mm 2 mps 744 mmHg 98%
    06:00 +15°C° 0 mm 2 mps 744 mmHg 90%
    07:00 +16°C° 0 mm 2 mps 744 mmHg 83%
    08:00 +19°C° 0 mm 1 mps 744 mmHg 75%
    09:00 +19°C° 0 mm 2 mps 744 mmHg 67%
    10:00 +21°C° 0 mm 2 mps 743 mmHg 58%
    11:00 +23°C° 0 mm 2 mps 743 mmHg 49%
    12:00 +24°C° 0 mm 2 mps 743 mmHg 48%
    13:00 +24°C° 0 mm 1 mps 743 mmHg 48%
    14:00 +24°C° 0 mm 1 mps 743 mmHg 47%
    15:00 +24°C° 0 mm 1 mps 743 mmHg 48%
    16:00 +24°C° 0 mm 1 mps 742 mmHg 48%
    17:00 +24°C° 0 mm 1 mps 742 mmHg 48%
    18:00 +22°C° 0 mm 1 mps 742 mmHg 56%
    19:00 +20°C° 0 mm 1 mps 742 mmHg 64%
    20:00 +18°C° 0 mm 1 mps 742 mmHg 72%
    21:00 +18°C° 0 mm 1 mps 742 mmHg 76%
    22:00 +16°C° 0 mm 1 mps 742 mmHg 80%
    23:00 +15°C° 0 mm 1 mps 742 mmHg 84%

    Tomorrow, 23 May, Thursday

    Time Temperature Precipitation Wind Pressure Humidity
    00:00 +14°C° 0 mm 1 mps 742 mmHg 85%
    01:00 +13°C° 0 mm 0 mps 743 mmHg 86%
    02:00 +13°C° 0 mm 0 mps 743 mmHg 87%
    03:00 +13°C° 0 mm 0 mps 743 mmHg 87%
    04:00 +14°C° 0 mm 1 mps 743 mmHg 88%
    05:00 +14°C° 0 mm 1 mps 743 mmHg 88%
    06:00 +16°C° 0 mm 1 mps 743 mmHg 80%
    07:00 +19°C° 0 mm 1 mps 743 mmHg 73%
    08:00 +21°C° 0 mm 1 mps 743 mmHg 65%
    09:00 +23°C° 0 mm 1 mps 743 mmHg 60%
    10:00 +24°C° 0 mm 1 mps 743 mmHg 54%
    11:00 +26°C° 0 mm 1 mps 743 mmHg 48%
    12:00 +26°C° 0 mm 1 mps 743 mmHg 46%
    13:00 +26°C° 0 mm 1 mps 743 mmHg 44%
    14:00 +27°C° 0 mm 2 mps 742 mmHg 43%
    15:00 +26°C° 0 mm 2 mps 742 mmHg 45%
    16:00 +26°C° 0 mm 2 mps 742 mmHg 47%
    17:00 +26°C° 0 mm 1 mps 742 mmHg 49%
    18:00 +24°C° 0 mm 1 mps 742 mmHg 57%
    19:00 +22°C° 0 mm 1 mps 742 mmHg 64%
    20:00 +20°C° 0 mm 1 mps 742 mmHg 72%
    21:00 +19°C° 0 mm 1 mps 742 mmHg 75%
    22:00 +18°C° 0 mm 1 mps 742 mmHg 79%
    23:00 +18°C° 0 mm 1 mps 743 mmHg 82%

    Day after tomorrow, 24 May, Friday

    Time Temperature Precipitation Wind Pressure Humidity
    00:00 +16°C° 0 mm 1 mps 743 mmHg 85%
    01:00 +16°C° 0 mm 1 mps 743 mmHg 87%
    02:00 +15°C° 0 mm 1 mps 743 mmHg 89%
    03:00 +15°C° 0 mm 1 mps 743 mmHg 90%
    04:00 +15°C° 0 mm 1 mps 743 mmHg 90%
    05:00 +15°C° 0 mm 1 mps 743 mmHg 90%
    06:00 +18°C° 0 mm 1 mps 743 mmHg 83%
    07:00 +20°C° 0 mm 1 mps 743 mmHg 76%
    08:00 +22°C° 0 mm 1 mps 743 mmHg 68%
    09:00 +23°C° 0.1 mm 1 mps 743 mmHg 64%
    10:00 +25°C° 0.1 mm 2 mps 743 mmHg 60%
    11:00 +26°C° 0.1 mm 2 mps 743 mmHg 55%
    12:00 +25°C° 0.6 mm 2 mps 743 mmHg 58%
    13:00 +25°C° 0.6 mm 2 mps 743 mmHg 60%
    14:00 +25°C° 0.6 mm 3 mps 743 mmHg 63%
    15:00 +24°C° 0.6 mm 2 mps 742 mmHg 67%
    16:00 +23°C° 0.6 mm 2 mps 742 mmHg 71%
    17:00 +23°C° 0.6 mm 2 mps 742 mmHg 75%
    18:00 +20°C° 0.3 mm 2 mps 742 mmHg 80%
    19:00 +19°C° 0.3 mm 2 mps 742 mmHg 85%
    20:00 +18°C° 0.3 mm 2 mps 742 mmHg 91%
    21:00 +17°C° 0 mm 2 mps 742 mmHg 92%
    22:00 +16°C° 0 mm 2 mps 742 mmHg 93%
    23:00 +15°C° 0 mm 2 mps 742 mmHg 94%

    25 May, Saturday

    Time Temperature Precipitation Wind Pressure Humidity
    00:00 +15°C° 0 mm 2 mps 742 mmHg 95%
    01:00 +14°C° 0 mm 2 mps 742 mmHg 96%
    02:00 +14°C° 0 mm 2 mps 742 mmHg 98%
    03:00 +14°C° 0.5 mm 2 mps 742 mmHg 97%
    04:00 +13°C° 0.5 mm 3 mps 742 mmHg 96%
    05:00 +13°C° 0.5 mm 3 mps 742 mmHg 95%
    06:00 +13°C° 0.2 mm 3 mps 742 mmHg 92%
    07:00 +14°C° 0.2 mm 4 mps 742 mmHg 88%
    08:00 +14°C° 0.2 mm 4 mps 742 mmHg 84%
    09:00 +17°C° 0 mm 4 mps 742 mmHg 71%
    10:00 +17°C° 0 mm 5 mps 742 mmHg 58%
    11:00 +20°C° 0 mm 5 mps 742 mmHg 46%
    12:00 +20°C° 0 mm 5 mps 742 mmHg 44%
    13:00 +21°C° 0 mm 5 mps 742 mmHg 42%
    14:00 +22°C° 0 mm 4 mps 742 mmHg 40%
    15:00 +22°C° 0 mm 4 mps 742 mmHg 43%
    16:00 +21°C° 0 mm 3 mps 742 mmHg 45%
    17:00 +21°C° 0 mm 3 mps 741 mmHg 48%
    18:00 +20°C° 0.1 mm 3 mps 741 mmHg 60%
    19:00 +18°C° 0.1 mm 2 mps 741 mmHg 72%
    20:00 +16°C° 0.1 mm 2 mps 742 mmHg 84%
    21:00 +15°C° 0 mm 2 mps 742 mmHg 87%
    22:00 +14°C° 0 mm 2 mps 742 mmHg 90%
    23:00 +13°C° 0 mm 2 mps 742 mmHg 94%

    26 May, Sunday

    Time Temperature Precipitation Wind Pressure Humidity
    00:00 +13°C° 0 mm 2 mps 742 mmHg 94%
    01:00 +11°C° 0 mm 3 mps 742 mmHg 95%
    02:00 +11°C° 0 mm 3 mps 742 mmHg 96%
    03:00 +10°C° 0 mm 2 mps 742 mmHg 95%
    04:00 +10°C° 0 mm 2 mps 743 mmHg 94%
    05:00 +9°C° 0 mm 2 mps 743 mmHg 93%
    06:00 +10°C° 0 mm 2 mps 743 mmHg 90%
    07:00 +12°C° 0 mm 2 mps 743 mmHg 86%
    08:00 +12°C° 0 mm 3 mps 743 mmHg 83%
    09:00 +13°C° 0.1 mm 3 mps 743 mmHg 77%
    10:00 +14°C° 0.1 mm 4 mps 743 mmHg 72%
    11:00 +15°C° 0.1 mm 4 mps 743 mmHg 67%
    12:00 +15°C° 0.1 mm 4 mps 742 mmHg 68%
    13:00 +14°C° 0.1 mm 4 mps 742 mmHg 68%
    14:00 +14°C° 0.1 mm 4 mps 742 mmHg 69%
    15:00 +15°C° 0.2 mm 4 mps 741 mmHg 69%
    16:00 +15°C° 0.2 mm 5 mps 741 mmHg 69%
    17:00 +15°C° 0.2 mm 5 mps 741 mmHg 69%
    18:00 +14°C° 0.1 mm 4 mps 741 mmHg 73%
    19:00 +13°C° 0.1 mm 4 mps 741 mmHg 76%
    20:00 +12°C° 0.1 mm 4 mps 741 mmHg 80%
    21:00 +11°C° 0 mm 4 mps 741 mmHg 81%
    22:00 +11°C° 0 mm 4 mps 741 mmHg 82%
    23:00 +10°C° 0 mm 3 mps 741 mmHg 84%

    27 May, Monday

    Time Temperature Precipitation Wind Pressure Humidity
    00:00 +10°C° 0 mm 4 mps 742 mmHg 83%
    01:00 +10°C° 0 mm 4 mps 742 mmHg 83%
    02:00 +10°C° 0 mm 4 mps 742 mmHg 83%
    03:00 +10°C° 0.1 mm 4 mps 742 mmHg 84%
    04:00 +8°C° 0.1 mm 4 mps 742 mmHg 85%
    05:00 +8°C° 0.1 mm 4 mps 742 mmHg 86%
    06:00 +8°C° 0 mm 5 mps 743 mmHg 78%
    07:00 +9°C° 0 mm 5 mps 743 mmHg 69%
    08:00 +10°C° 0 mm 6 mps 743 mmHg 60%
    09:00 +11°C° 0 mm 6 mps 743 mmHg 57%
    10:00 +14°C° 0 mm 6 mps 744 mmHg 54%
    11:00 +15°C° 0 mm 5 mps 744 mmHg 50%
    12:00 +16°C° 0 mm 5 mps 744 mmHg 50%
    13:00 +16°C° 0 mm 6 mps 744 mmHg 49%
    14:00 +17°C° 0 mm 6 mps 744 mmHg 49%
    15:00 +17°C° 0 mm 5 mps 744 mmHg 50%
    16:00 +17°C° 0 mm 5 mps 744 mmHg 51%
    17:00 +18°C° 0 mm 4 mps 744 mmHg 51%
    18:00 +17°C° 0 mm 3 mps 744 mmHg 58%
    19:00 +14°C° 0 mm 3 mps 744 mmHg 65%
    20:00 +14°C° 0 mm 2 mps 745 mmHg 72%
    21:00 +14°C° 0 mm 2 mps 744 mmHg 75%
    22:00 +13°C° 0 mm 2 mps 744 mmHg 77%
    23:00 +12°C° 0 mm 3 mps 744 mmHg 79%
    Show more